Year,Month,Day,Hour,Minute,Value (Times are PST for temperature in C)
2018,04,27,00,00,15.60
2018,04,27,00,01,15.60
2018,04,27,00,02,15.60
2018,04,27,00,03,15.60
2018,04,27,00,04,15.50
2018,04,27,00,05,15.50
2018,04,27,00,06,15.50
2018,04,27,00,07,15.40
2018,04,27,00,08,15.40
2018,04,27,00,09,15.40
2018,04,27,00,10,15.30
2018,04,27,00,11,15.30
2018,04,27,00,12,15.30
2018,04,27,00,13,15.30
2018,04,27,00,14,15.30
2018,04,27,00,15,15.30
2018,04,27,00,16,15.30
2018,04,27,00,17,15.30
2018,04,27,00,18,15.30
2018,04,27,00,19,15.30
2018,04,27,00,20,15.30
2018,04,27,00,21,15.30
2018,04,27,00,22,15.30
2018,04,27,00,23,15.30
2018,04,27,00,24,15.30
2018,04,27,00,25,15.20
2018,04,27,00,26,15.20
2018,04,27,00,27,15.20
2018,04,27,00,28,15.20
2018,04,27,00,29,15.10
2018,04,27,00,30,15.10
2018,04,27,00,31,15.10
2018,04,27,00,32,15.10
2018,04,27,00,33,15.10
2018,04,27,00,34,15.10
2018,04,27,00,35,15.10
2018,04,27,00,36,15.10
2018,04,27,00,37,15.10
2018,04,27,00,38,15.20
2018,04,27,00,39,15.20
2018,04,27,00,40,15.30
2018,04,27,00,41,15.30
2018,04,27,00,42,15.30
2018,04,27,00,43,15.20
2018,04,27,00,44,15.20
2018,04,27,00,45,15.10
2018,04,27,00,46,15.00
2018,04,27,00,47,15.00
2018,04,27,00,48,14.90
2018,04,27,00,49,14.80
2018,04,27,00,50,14.80
2018,04,27,00,51,14.70
2018,04,27,00,52,14.60
2018,04,27,00,53,14.60
2018,04,27,00,54,14.50
2018,04,27,00,55,14.50
2018,04,27,00,56,14.40
2018,04,27,00,57,14.40
2018,04,27,00,58,14.40
2018,04,27,00,59,14.40
2018,04,27,01,00,14.40
2018,04,27,01,01,14.30
2018,04,27,01,02,14.30
2018,04,27,01,03,14.30
2018,04,27,01,04,14.30
2018,04,27,01,05,14.30
2018,04,27,01,06,14.30
2018,04,27,01,07,14.20
2018,04,27,01,08,14.20
2018,04,27,01,09,14.20
2018,04,27,01,10,14.20
2018,04,27,01,11,14.20
2018,04,27,01,12,14.20
2018,04,27,01,13,14.10
2018,04,27,01,14,14.10
2018,04,27,01,15,14.10
2018,04,27,01,16,14.10
2018,04,27,01,17,14.10
2018,04,27,01,18,14.00
2018,04,27,01,19,14.00
2018,04,27,01,20,13.90
2018,04,27,01,21,13.90
2018,04,27,01,22,13.90
2018,04,27,01,23,13.90
2018,04,27,01,24,13.90
2018,04,27,01,25,13.90
2018,04,27,01,26,13.90
2018,04,27,01,27,13.90
2018,04,27,01,28,14.00
2018,04,27,01,29,14.00
2018,04,27,01,30,14.10
2018,04,27,01,31,14.10
2018,04,27,01,32,14.10
2018,04,27,01,33,14.10
2018,04,27,01,34,14.10
2018,04,27,01,35,14.20
2018,04,27,01,36,14.20
2018,04,27,01,37,14.20
2018,04,27,01,38,14.30
2018,04,27,01,39,14.30
2018,04,27,01,40,14.30
2018,04,27,01,41,14.40
2018,04,27,01,42,14.40
2018,04,27,01,43,14.50
2018,04,27,01,44,14.50
2018,04,27,01,45,14.60
2018,04,27,01,46,14.60
2018,04,27,01,47,14.60
2018,04,27,01,48,14.60
2018,04,27,01,49,14.60
2018,04,27,01,50,14.60
2018,04,27,01,51,14.60
2018,04,27,01,52,14.60
2018,04,27,01,53,14.60
2018,04,27,01,54,14.60
2018,04,27,01,55,14.60
2018,04,27,01,56,14.60
2018,04,27,01,57,14.60
2018,04,27,01,58,14.60
2018,04,27,01,59,14.60
2018,04,27,02,00,14.60
2018,04,27,02,01,14.60
2018,04,27,02,02,14.60
2018,04,27,02,03,14.70
2018,04,27,02,04,14.70
2018,04,27,02,05,14.60
2018,04,27,02,06,14.70
2018,04,27,02,07,14.70
2018,04,27,02,08,14.70
2018,04,27,02,09,14.70
2018,04,27,02,10,14.70
2018,04,27,02,11,14.60
2018,04,27,02,12,14.60
2018,04,27,02,13,14.60
2018,04,27,02,14,14.50
2018,04,27,02,15,14.50
2018,04,27,02,16,14.40
2018,04,27,02,17,14.40
2018,04,27,02,18,14.40
2018,04,27,02,19,14.30
2018,04,27,02,20,14.30
2018,04,27,02,21,14.30
2018,04,27,02,22,14.20
2018,04,27,02,23,14.20
2018,04,27,02,24,14.20
2018,04,27,02,25,14.10
2018,04,27,02,26,14.00
2018,04,27,02,27,14.00
2018,04,27,02,28,13.90
2018,04,27,02,29,13.80
2018,04,27,02,30,13.80
2018,04,27,02,31,13.70
2018,04,27,02,32,13.70
2018,04,27,02,33,13.70
2018,04,27,02,34,13.70
2018,04,27,02,35,13.60
2018,04,27,02,36,13.60
2018,04,27,02,37,13.60
2018,04,27,02,38,13.50
2018,04,27,02,39,13.50
2018,04,27,02,40,13.50
2018,04,27,02,41,13.40
2018,04,27,02,42,13.40
2018,04,27,02,43,13.40
2018,04,27,02,44,13.30
2018,04,27,02,45,13.30
2018,04,27,02,46,13.30
2018,04,27,02,47,13.30
2018,04,27,02,48,13.20
2018,04,27,02,49,13.20
2018,04,27,02,50,13.20
2018,04,27,02,51,13.20
2018,04,27,02,52,13.20
2018,04,27,02,53,13.20
2018,04,27,02,54,13.20
2018,04,27,02,55,13.20
2018,04,27,02,56,13.20
2018,04,27,02,57,13.30
2018,04,27,02,58,13.30
2018,04,27,02,59,13.30
2018,04,27,03,00,13.30
2018,04,27,03,01,13.30
2018,04,27,03,02,13.30
2018,04,27,03,03,13.30
2018,04,27,03,04,13.30
2018,04,27,03,05,13.30
2018,04,27,03,06,13.30
2018,04,27,03,07,13.20
2018,04,27,03,08,13.20
2018,04,27,03,09,13.10
2018,04,27,03,10,13.10
2018,04,27,03,11,13.10
2018,04,27,03,12,13.00
2018,04,27,03,13,12.90
2018,04,27,03,14,12.90
2018,04,27,03,15,12.80
2018,04,27,03,16,12.80
2018,04,27,03,17,12.70
2018,04,27,03,18,12.70
2018,04,27,03,19,12.70
2018,04,27,03,20,12.70
2018,04,27,03,21,12.70
2018,04,27,03,22,12.70
2018,04,27,03,23,12.80
2018,04,27,03,24,12.90
2018,04,27,03,25,12.90
2018,04,27,03,26,12.90
2018,04,27,03,27,12.90
2018,04,27,03,28,12.90
2018,04,27,03,29,13.00
2018,04,27,03,30,13.00
2018,04,27,03,31,13.00
2018,04,27,03,32,13.10
2018,04,27,03,33,13.10
2018,04,27,03,34,13.00
2018,04,27,03,35,13.00
2018,04,27,03,36,13.00
2018,04,27,03,37,12.90
2018,04,27,03,38,12.90
2018,04,27,03,39,12.90
2018,04,27,03,40,12.90
2018,04,27,03,41,12.90
2018,04,27,03,42,12.90
2018,04,27,03,43,12.80
2018,04,27,03,44,12.80
2018,04,27,03,45,12.80
2018,04,27,03,46,12.80
2018,04,27,03,47,12.80
2018,04,27,03,48,12.80
2018,04,27,03,49,12.80
2018,04,27,03,50,12.80
2018,04,27,03,51,12.80
2018,04,27,03,52,12.80
2018,04,27,03,53,12.80
2018,04,27,03,54,12.80
2018,04,27,03,55,12.90
2018,04,27,03,56,12.90
2018,04,27,03,57,12.90
2018,04,27,03,58,12.90
2018,04,27,03,59,13.00
2018,04,27,04,00,13.00
2018,04,27,04,01,13.00
2018,04,27,04,02,13.10
2018,04,27,04,03,13.10
2018,04,27,04,04,13.00
2018,04,27,04,05,13.00
2018,04,27,04,06,13.00
2018,04,27,04,07,13.00
2018,04,27,04,08,13.00
2018,04,27,04,09,13.00
2018,04,27,04,10,13.00
2018,04,27,04,11,13.00
2018,04,27,04,12,13.10
2018,04,27,04,13,13.10
2018,04,27,04,14,13.00
2018,04,27,04,15,13.00
2018,04,27,04,16,13.00
2018,04,27,04,17,13.00
2018,04,27,04,18,13.00
2018,04,27,04,19,12.90
2018,04,27,04,20,13.00
2018,04,27,04,21,13.00
2018,04,27,04,22,13.00
2018,04,27,04,23,13.00
2018,04,27,04,24,13.00
2018,04,27,04,25,13.00
2018,04,27,04,26,13.00
2018,04,27,04,27,12.90
2018,04,27,04,28,12.90
2018,04,27,04,29,12.90
2018,04,27,04,30,12.80
2018,04,27,04,31,12.80
2018,04,27,04,32,12.80
2018,04,27,04,33,12.70
2018,04,27,04,34,12.70
2018,04,27,04,35,12.70
2018,04,27,04,36,12.70
2018,04,27,04,37,12.60
2018,04,27,04,38,12.60
2018,04,27,04,39,12.50
2018,04,27,04,40,12.50
2018,04,27,04,41,12.40
2018,04,27,04,42,12.40
2018,04,27,04,43,12.40
2018,04,27,04,44,12.30
2018,04,27,04,45,12.30
2018,04,27,04,46,12.30
2018,04,27,04,47,12.30
2018,04,27,04,48,12.30
2018,04,27,04,49,12.30
2018,04,27,04,50,12.30
2018,04,27,04,51,12.30
2018,04,27,04,52,12.30
2018,04,27,04,53,12.30
2018,04,27,04,54,12.30
2018,04,27,04,55,12.30
2018,04,27,04,56,12.40
2018,04,27,04,57,12.40
2018,04,27,04,58,12.40
2018,04,27,04,59,12.40
2018,04,27,05,00,12.40
2018,04,27,05,01,12.40
2018,04,27,05,02,12.40
2018,04,27,05,03,12.40
2018,04,27,05,04,12.40
2018,04,27,05,05,12.50
2018,04,27,05,06,12.50
2018,04,27,05,07,12.50
2018,04,27,05,08,12.50
2018,04,27,05,09,12.50
2018,04,27,05,10,12.60
2018,04,27,05,11,12.60
2018,04,27,05,12,12.60
2018,04,27,05,13,12.60
2018,04,27,05,14,12.70
2018,04,27,05,15,12.70
2018,04,27,05,16,12.60
2018,04,27,05,17,12.60
2018,04,27,05,18,12.60
2018,04,27,05,19,12.60
2018,04,27,05,20,12.50
2018,04,27,05,21,12.50
2018,04,27,05,22,12.40
2018,04,27,05,23,12.40
2018,04,27,05,24,12.30
2018,04,27,05,25,12.20
2018,04,27,05,26,12.20
2018,04,27,05,27,12.20
2018,04,27,05,28,12.10
2018,04,27,05,29,12.10
2018,04,27,05,30,12.10
2018,04,27,05,31,12.10
2018,04,27,05,32,12.10
2018,04,27,05,33,12.10
2018,04,27,05,34,12.20
2018,04,27,05,35,12.20
2018,04,27,05,36,12.20
2018,04,27,05,37,12.20
2018,04,27,05,38,12.20
2018,04,27,05,39,12.20
2018,04,27,05,40,12.20
2018,04,27,05,41,12.20
2018,04,27,05,42,12.20
2018,04,27,05,43,12.20
2018,04,27,05,44,12.20
2018,04,27,05,45,12.20
2018,04,27,05,46,12.20
2018,04,27,05,47,12.20
2018,04,27,05,48,12.20
2018,04,27,05,49,12.20
2018,04,27,05,50,12.20
2018,04,27,05,51,12.20
2018,04,27,05,52,12.10
2018,04,27,05,53,12.10
2018,04,27,05,54,12.10
2018,04,27,05,55,12.00
2018,04,27,05,56,12.00
2018,04,27,05,57,12.00
2018,04,27,05,58,12.00
2018,04,27,05,59,11.90
2018,04,27,06,00,11.90
2018,04,27,06,01,11.90
2018,04,27,06,02,11.90
2018,04,27,06,03,11.90
2018,04,27,06,04,11.80
2018,04,27,06,05,11.80
2018,04,27,06,06,11.80
2018,04,27,06,07,11.80
2018,04,27,06,08,11.80
2018,04,27,06,09,11.80
2018,04,27,06,10,11.80
2018,04,27,06,11,11.80
2018,04,27,06,12,11.70
2018,04,27,06,13,11.70
2018,04,27,06,14,11.70
2018,04,27,06,15,11.70
2018,04,27,06,16,11.60
2018,04,27,06,17,11.60
2018,04,27,06,18,11.60
2018,04,27,06,19,11.60
2018,04,27,06,20,11.60
2018,04,27,06,21,11.60
2018,04,27,06,22,11.50
2018,04,27,06,23,11.50
2018,04,27,06,24,11.40
2018,04,27,06,25,11.40
2018,04,27,06,26,11.40
2018,04,27,06,27,11.40
2018,04,27,06,28,11.40
2018,04,27,06,29,11.40
2018,04,27,06,30,11.40
2018,04,27,06,31,11.40
2018,04,27,06,32,11.40
2018,04,27,06,33,11.40
2018,04,27,06,34,11.40
2018,04,27,06,35,11.50
2018,04,27,06,36,11.50
2018,04,27,06,37,11.50
2018,04,27,06,38,11.50
2018,04,27,06,39,11.50
2018,04,27,06,40,11.50
2018,04,27,06,41,11.50
2018,04,27,06,42,11.50
2018,04,27,06,43,11.50
2018,04,27,06,44,11.60
2018,04,27,06,45,11.60
2018,04,27,06,46,11.60
2018,04,27,06,47,11.60
2018,04,27,06,48,11.60
2018,04,27,06,49,11.70
2018,04,27,06,50,11.70
2018,04,27,06,51,11.80
2018,04,27,06,52,11.80
2018,04,27,06,53,11.80
2018,04,27,06,54,11.90
2018,04,27,06,55,11.90
2018,04,27,06,56,11.90
2018,04,27,06,57,11.90
2018,04,27,06,58,12.00
2018,04,27,06,59,12.00
2018,04,27,07,00,12.00
2018,04,27,07,01,12.10
2018,04,27,07,02,12.10
2018,04,27,07,03,12.10
2018,04,27,07,04,12.10
2018,04,27,07,05,12.10
2018,04,27,07,06,12.10
2018,04,27,07,07,12.10
2018,04,27,07,08,12.10
2018,04,27,07,09,12.10
2018,04,27,07,10,12.10
2018,04,27,07,11,12.10
2018,04,27,07,12,12.10
2018,04,27,07,13,12.20
2018,04,27,07,14,12.10
2018,04,27,07,15,12.10
2018,04,27,07,16,12.10
2018,04,27,07,17,12.00
2018,04,27,07,18,12.00
2018,04,27,07,19,11.90
2018,04,27,07,20,11.90
2018,04,27,07,21,11.90
2018,04,27,07,22,11.80
2018,04,27,07,23,11.80
2018,04,27,07,24,11.80
2018,04,27,07,25,11.80
2018,04,27,07,26,11.80
2018,04,27,07,27,11.80
2018,04,27,07,28,11.90
2018,04,27,07,29,11.90
2018,04,27,07,30,11.90
2018,04,27,07,31,11.90
2018,04,27,07,32,12.00
2018,04,27,07,33,12.00
2018,04,27,07,34,12.10
2018,04,27,07,35,12.10
2018,04,27,07,36,12.10
2018,04,27,07,37,12.10
2018,04,27,07,38,12.20
2018,04,27,07,39,12.20
2018,04,27,07,40,12.20
2018,04,27,07,41,12.30
2018,04,27,07,42,12.30
2018,04,27,07,43,12.40
2018,04,27,07,44,12.40
2018,04,27,07,45,12.40
2018,04,27,07,46,12.50
2018,04,27,07,47,12.50
2018,04,27,07,48,12.60
2018,04,27,07,49,12.70
2018,04,27,07,50,12.70
2018,04,27,07,51,12.80
2018,04,27,07,52,12.90
2018,04,27,07,53,13.00
2018,04,27,07,54,13.20
2018,04,27,07,55,13.30
2018,04,27,07,56,13.40
2018,04,27,07,57,13.50
2018,04,27,07,58,13.50
2018,04,27,07,59,13.60
2018,04,27,08,00,13.80
2018,04,27,08,01,13.90
2018,04,27,08,02,14.10
2018,04,27,08,03,14.20
2018,04,27,08,04,14.40
2018,04,27,08,05,14.50
2018,04,27,08,06,14.70
2018,04,27,08,07,14.90
2018,04,27,08,08,15.10
2018,04,27,08,09,15.30
2018,04,27,08,10,15.50
2018,04,27,08,11,15.70
2018,04,27,08,12,15.80
2018,04,27,08,13,15.90
2018,04,27,08,14,16.10
2018,04,27,08,15,16.20
2018,04,27,08,16,16.30
2018,04,27,08,17,16.40
2018,04,27,08,18,16.60
2018,04,27,08,19,16.70
2018,04,27,08,20,16.80
2018,04,27,08,21,16.90
2018,04,27,08,22,17.10
2018,04,27,08,23,17.10
2018,04,27,08,24,17.30
2018,04,27,08,25,17.30
2018,04,27,08,26,17.30
2018,04,27,08,27,17.30
2018,04,27,08,28,17.20
2018,04,27,08,29,17.00
2018,04,27,08,30,16.90
2018,04,27,08,31,16.80
2018,04,27,08,32,16.70
2018,04,27,08,33,16.70
2018,04,27,08,34,16.60
2018,04,27,08,35,16.60
2018,04,27,08,36,16.60
2018,04,27,08,37,16.60
2018,04,27,08,38,16.60
2018,04,27,08,39,16.60
2018,04,27,08,40,16.60
2018,04,27,08,41,16.70
2018,04,27,08,42,16.70
2018,04,27,08,43,16.80
2018,04,27,08,44,16.80
2018,04,27,08,45,16.80
2018,04,27,08,46,16.80
2018,04,27,08,47,16.80
2018,04,27,08,48,16.90
2018,04,27,08,49,16.90
2018,04,27,08,50,16.90
2018,04,27,08,51,16.90
2018,04,27,08,52,16.90
2018,04,27,08,53,16.90
2018,04,27,08,54,16.90
2018,04,27,08,55,17.00
2018,04,27,08,56,17.10
2018,04,27,08,57,17.20
2018,04,27,08,58,17.30
2018,04,27,08,59,17.40
2018,04,27,09,00,17.60
2018,04,27,09,01,17.70
2018,04,27,09,02,17.70
2018,04,27,09,03,17.80
2018,04,27,09,04,17.90
2018,04,27,09,05,18.00
2018,04,27,09,06,18.10
2018,04,27,09,07,18.20
2018,04,27,09,08,18.30
2018,04,27,09,09,18.30
2018,04,27,09,10,18.40
2018,04,27,09,11,18.50
2018,04,27,09,12,18.50
2018,04,27,09,13,18.60
2018,04,27,09,14,18.70
2018,04,27,09,15,18.80
2018,04,27,09,16,18.90
2018,04,27,09,17,19.00
2018,04,27,09,18,19.00
2018,04,27,09,19,19.10
2018,04,27,09,20,19.10
2018,04,27,09,21,19.00
2018,04,27,09,22,19.00
2018,04,27,09,23,19.00
2018,04,27,09,24,18.90
2018,04,27,09,25,18.90
2018,04,27,09,26,19.00
2018,04,27,09,27,19.00
2018,04,27,09,28,19.10
2018,04,27,09,29,19.10
2018,04,27,09,30,19.10
2018,04,27,09,31,19.10
2018,04,27,09,32,19.10
2018,04,27,09,33,19.00
2018,04,27,09,34,19.00
2018,04,27,09,35,18.90
2018,04,27,09,36,18.90
2018,04,27,09,37,18.80
2018,04,27,09,38,18.70
2018,04,27,09,39,18.60
2018,04,27,09,40,18.50
2018,04,27,09,41,18.40
2018,04,27,09,42,18.30
2018,04,27,09,43,18.30
2018,04,27,09,44,18.20
2018,04,27,09,45,18.20
2018,04,27,09,46,18.10
2018,04,27,09,47,18.10
2018,04,27,09,48,18.10
2018,04,27,09,49,18.10
2018,04,27,09,50,18.10
2018,04,27,09,51,18.00
2018,04,27,09,52,18.00
2018,04,27,09,53,17.90
2018,04,27,09,54,18.00
2018,04,27,09,55,18.00
2018,04,27,09,56,18.00
2018,04,27,09,57,18.10
2018,04,27,09,58,18.20
2018,04,27,09,59,18.20
2018,04,27,10,00,18.20
2018,04,27,10,01,18.20
2018,04,27,10,02,18.20
2018,04,27,10,03,18.20
2018,04,27,10,04,18.30
2018,04,27,10,05,18.30
2018,04,27,10,06,18.30
2018,04,27,10,07,18.30
2018,04,27,10,08,18.30
2018,04,27,10,09,18.40
2018,04,27,10,10,18.40
2018,04,27,10,11,18.50
2018,04,27,10,12,18.50
2018,04,27,10,13,18.60
2018,04,27,10,14,18.60
2018,04,27,10,15,18.70
2018,04,27,10,16,18.70
2018,04,27,10,17,18.80
2018,04,27,10,18,18.80
2018,04,27,10,19,18.70
2018,04,27,10,20,18.70
2018,04,27,10,21,18.70
2018,04,27,10,22,18.70
2018,04,27,10,23,18.70
2018,04,27,10,24,18.80
2018,04,27,10,25,18.80
2018,04,27,10,26,18.80
2018,04,27,10,27,18.90
2018,04,27,10,28,18.90
2018,04,27,10,29,18.80
2018,04,27,10,30,18.80
2018,04,27,10,31,18.80
2018,04,27,10,32,18.90
2018,04,27,10,33,18.90
2018,04,27,10,34,19.00
2018,04,27,10,35,19.10
2018,04,27,10,36,19.10
2018,04,27,10,37,19.20
2018,04,27,10,38,19.20
2018,04,27,10,39,19.20
2018,04,27,10,40,19.20
2018,04,27,10,41,19.30
2018,04,27,10,42,19.30
2018,04,27,10,43,19.40
2018,04,27,10,44,19.50
2018,04,27,10,45,19.60
2018,04,27,10,46,19.70
2018,04,27,10,47,19.80
2018,04,27,10,48,19.80
2018,04,27,10,49,19.90
2018,04,27,10,50,19.90
2018,04,27,10,51,19.90
2018,04,27,10,52,19.90
2018,04,27,10,53,19.90
2018,04,27,10,54,20.00
2018,04,27,10,55,20.00
2018,04,27,10,56,20.00
2018,04,27,10,57,20.00
2018,04,27,10,58,20.00
2018,04,27,10,59,20.00
2018,04,27,11,00,20.10
2018,04,27,11,01,20.10
2018,04,27,11,02,20.00
2018,04,27,11,03,20.00
2018,04,27,11,04,20.00
2018,04,27,11,05,20.00
2018,04,27,11,06,20.00
2018,04,27,11,07,20.00
2018,04,27,11,08,19.90
2018,04,27,11,09,19.90
2018,04,27,11,10,20.00
2018,04,27,11,11,20.00
2018,04,27,11,12,20.00
2018,04,27,11,13,20.00
2018,04,27,11,14,20.10
2018,04,27,11,15,20.10
2018,04,27,11,16,20.10
2018,04,27,11,17,20.00
2018,04,27,11,18,20.00
2018,04,27,11,19,20.00
2018,04,27,11,20,20.00
2018,04,27,11,21,20.00
2018,04,27,11,22,20.10
2018,04,27,11,23,20.10
2018,04,27,11,24,20.10
2018,04,27,11,25,20.10
2018,04,27,11,26,20.10
2018,04,27,11,27,20.10
2018,04,27,11,28,20.20
2018,04,27,11,29,20.20
2018,04,27,11,30,20.20
2018,04,27,11,31,20.20
2018,04,27,11,32,20.10
2018,04,27,11,33,20.10
2018,04,27,11,34,20.00
2018,04,27,11,35,20.00
2018,04,27,11,36,20.00
2018,04,27,11,37,20.10
2018,04,27,11,38,20.10
2018,04,27,11,39,20.10
2018,04,27,11,40,20.10
2018,04,27,11,41,20.00
2018,04,27,11,42,20.00
2018,04,27,11,43,19.90
2018,04,27,11,44,19.80
2018,04,27,11,45,19.70
2018,04,27,11,46,19.70
2018,04,27,11,47,19.70
2018,04,27,11,48,19.70
2018,04,27,11,49,19.70
2018,04,27,11,50,19.70
2018,04,27,11,51,19.80
2018,04,27,11,52,19.80
2018,04,27,11,53,19.80
2018,04,27,11,54,19.80
2018,04,27,11,55,19.80
2018,04,27,11,56,19.80
2018,04,27,11,57,19.80
2018,04,27,11,58,19.70
2018,04,27,11,59,19.70
2018,04,27,12,00,19.70
2018,04,27,12,01,19.70
2018,04,27,12,02,19.70
2018,04,27,12,03,19.80
2018,04,27,12,04,19.80
2018,04,27,12,05,19.90
2018,04,27,12,06,19.90
2018,04,27,12,07,19.90
2018,04,27,12,08,19.90
2018,04,27,12,09,19.90
2018,04,27,12,10,19.90
2018,04,27,12,11,19.90
2018,04,27,12,12,19.90
2018,04,27,12,13,19.90
2018,04,27,12,14,19.90
2018,04,27,12,15,19.90
2018,04,27,12,16,19.80
2018,04,27,12,17,19.80
2018,04,27,12,18,19.80
2018,04,27,12,19,19.80
2018,04,27,12,20,19.70
2018,04,27,12,21,19.70
2018,04,27,12,22,19.70
2018,04,27,12,23,19.70
2018,04,27,12,24,19.70
2018,04,27,12,25,19.70
2018,04,27,12,26,19.80
2018,04,27,12,27,19.80
2018,04,27,12,28,19.80
2018,04,27,12,29,19.80
2018,04,27,12,30,19.80
2018,04,27,12,31,19.80
2018,04,27,12,32,19.80
2018,04,27,12,33,19.80
2018,04,27,12,34,19.80
2018,04,27,12,35,19.80
2018,04,27,12,36,19.80
2018,04,27,12,37,19.70
2018,04,27,12,38,19.70
2018,04,27,12,39,19.70
2018,04,27,12,40,19.70
2018,04,27,12,41,19.70
2018,04,27,12,42,19.80
2018,04,27,12,43,19.80
2018,04,27,12,44,19.80
2018,04,27,12,45,19.80
2018,04,27,12,46,19.80
2018,04,27,12,47,19.80
2018,04,27,12,48,19.80
2018,04,27,12,49,19.80
2018,04,27,12,50,19.80
2018,04,27,12,51,19.70
2018,04,27,12,52,19.70
2018,04,27,12,53,19.70
2018,04,27,12,54,19.80
2018,04,27,12,55,19.90
2018,04,27,12,56,20.00
2018,04,27,12,57,20.00
2018,04,27,12,58,20.10
2018,04,27,12,59,20.10
2018,04,27,13,00,20.10
2018,04,27,13,01,20.20
2018,04,27,13,02,20.20
2018,04,27,13,03,20.20
2018,04,27,13,04,20.30
2018,04,27,13,05,20.30
2018,04,27,13,06,20.20
2018,04,27,13,07,20.20
2018,04,27,13,08,20.30
2018,04,27,13,09,20.30
2018,04,27,13,10,20.30
2018,04,27,13,11,20.30
2018,04,27,13,12,20.40
2018,04,27,13,13,20.40
2018,04,27,13,14,20.40
2018,04,27,13,15,20.40
2018,04,27,13,16,20.50
2018,04,27,13,17,20.60
2018,04,27,13,18,20.60
2018,04,27,13,19,20.70
2018,04,27,13,20,20.70
2018,04,27,13,21,20.70
2018,04,27,13,22,20.70
2018,04,27,13,23,20.70
2018,04,27,13,24,20.70
2018,04,27,13,25,20.70
2018,04,27,13,26,20.80
2018,04,27,13,27,20.90
2018,04,27,13,28,20.90
2018,04,27,13,29,21.00
2018,04,27,13,30,21.00
2018,04,27,13,31,21.10
2018,04,27,13,32,21.10
2018,04,27,13,33,21.20
2018,04,27,13,34,21.30
2018,04,27,13,35,21.40
2018,04,27,13,36,21.40
2018,04,27,13,37,21.50
2018,04,27,13,38,21.60
2018,04,27,13,39,21.60
2018,04,27,13,40,21.60
2018,04,27,13,41,21.60
2018,04,27,13,42,21.50
2018,04,27,13,43,21.40
2018,04,27,13,44,21.40
2018,04,27,13,45,21.40
2018,04,27,13,46,21.40
2018,04,27,13,47,21.50
2018,04,27,13,48,21.60
2018,04,27,13,49,21.70
2018,04,27,13,50,21.80
2018,04,27,13,51,21.90
2018,04,27,13,52,21.90
2018,04,27,13,53,21.90
2018,04,27,13,54,21.90
2018,04,27,13,55,21.90
2018,04,27,13,56,21.90
2018,04,27,13,57,22.00
2018,04,27,13,58,22.00
2018,04,27,13,59,22.20
2018,04,27,14,00,22.30
2018,04,27,14,01,22.40
2018,04,27,14,02,22.60
2018,04,27,14,03,22.70
2018,04,27,14,04,22.70
2018,04,27,14,05,22.60
2018,04,27,14,06,22.60
2018,04,27,14,07,22.60
2018,04,27,14,08,22.60
2018,04,27,14,09,22.60
2018,04,27,14,10,22.60
2018,04,27,14,11,22.60
2018,04,27,14,12,22.70
2018,04,27,14,13,22.70
2018,04,27,14,14,22.70
2018,04,27,14,15,22.70
2018,04,27,14,16,22.60
2018,04,27,14,17,22.60
2018,04,27,14,18,22.70
2018,04,27,14,19,22.70
2018,04,27,14,20,22.80
2018,04,27,14,21,22.80
2018,04,27,14,22,22.80
2018,04,27,14,23,22.70
2018,04,27,14,24,22.70
2018,04,27,14,25,22.70
2018,04,27,14,26,22.70
2018,04,27,14,27,22.70
2018,04,27,14,28,22.70
2018,04,27,14,29,22.70
2018,04,27,14,30,22.70
2018,04,27,14,31,22.70
2018,04,27,14,32,22.90
2018,04,27,14,33,23.10
2018,04,27,14,34,23.20
2018,04,27,14,35,23.30
2018,04,27,14,36,23.40
2018,04,27,14,37,23.50
2018,04,27,14,38,23.60
2018,04,27,14,39,23.70
2018,04,27,14,40,23.80
2018,04,27,14,41,23.80
2018,04,27,14,42,24.00
2018,04,27,14,43,24.10
2018,04,27,14,44,24.30
2018,04,27,14,45,24.30
2018,04,27,14,46,24.30
2018,04,27,14,47,24.10
2018,04,27,14,48,24.00
2018,04,27,14,49,23.90
2018,04,27,14,50,23.80
2018,04,27,14,51,23.60
2018,04,27,14,52,23.50
2018,04,27,14,53,23.40
2018,04,27,14,54,23.20
2018,04,27,14,55,23.10
2018,04,27,14,56,23.00
2018,04,27,14,57,22.90
2018,04,27,14,58,22.90
2018,04,27,14,59,22.80
2018,04,27,15,00,22.80
2018,04,27,15,01,22.70
2018,04,27,15,02,22.60
2018,04,27,15,03,22.60
2018,04,27,15,04,22.60
2018,04,27,15,05,22.60
2018,04,27,15,06,22.60
2018,04,27,15,07,22.60
2018,04,27,15,08,22.50
2018,04,27,15,09,22.50
2018,04,27,15,10,22.40
2018,04,27,15,11,22.30
2018,04,27,15,12,22.30
2018,04,27,15,13,22.20
2018,04,27,15,14,22.10
2018,04,27,15,15,22.00
2018,04,27,15,16,21.80
2018,04,27,15,17,21.70
2018,04,27,15,18,21.70
2018,04,27,15,19,21.60
2018,04,27,15,20,21.50
2018,04,27,15,21,21.40
2018,04,27,15,22,21.30
2018,04,27,15,23,21.30
2018,04,27,15,24,21.20
2018,04,27,15,25,21.10
2018,04,27,15,26,21.10
2018,04,27,15,27,21.00
2018,04,27,15,28,20.90
2018,04,27,15,29,20.90
2018,04,27,15,30,20.80
2018,04,27,15,31,20.80
2018,04,27,15,32,20.70
2018,04,27,15,33,20.70
2018,04,27,15,34,20.70
2018,04,27,15,35,20.60
2018,04,27,15,36,20.50
2018,04,27,15,37,20.50
2018,04,27,15,38,20.50
2018,04,27,15,39,20.50
2018,04,27,15,40,20.40
2018,04,27,15,41,20.30
2018,04,27,15,42,20.20
2018,04,27,15,43,20.10
2018,04,27,15,44,20.00
2018,04,27,15,45,19.90
2018,04,27,15,46,19.80
2018,04,27,15,47,19.70
2018,04,27,15,48,19.60
2018,04,27,15,49,19.50
2018,04,27,15,50,19.40
2018,04,27,15,51,19.30
2018,04,27,15,52,19.20
2018,04,27,15,53,19.20
2018,04,27,15,54,19.10
2018,04,27,15,55,19.10
2018,04,27,15,56,19.10
2018,04,27,15,57,19.10
2018,04,27,15,58,19.10
2018,04,27,15,59,19.10
2018,04,27,16,00,19.10
2018,04,27,16,01,19.10
2018,04,27,16,02,19.10
2018,04,27,16,03,19.10
2018,04,27,16,04,19.10
2018,04,27,16,05,19.10
2018,04,27,16,06,19.10
2018,04,27,16,07,19.10
2018,04,27,16,08,19.10
2018,04,27,16,09,19.10
2018,04,27,16,10,19.10
2018,04,27,16,11,19.20
2018,04,27,16,12,19.20
2018,04,27,16,13,19.20
2018,04,27,16,14,19.10
2018,04,27,16,15,19.20
2018,04,27,16,16,19.20
2018,04,27,16,17,19.10
2018,04,27,16,18,19.10
2018,04,27,16,19,19.10
2018,04,27,16,20,19.10
2018,04,27,16,21,19.10
2018,04,27,16,22,19.10
2018,04,27,16,23,19.10
2018,04,27,16,24,19.10
2018,04,27,16,25,19.20
2018,04,27,16,26,19.20
2018,04,27,16,27,19.20
2018,04,27,16,28,19.20
2018,04,27,16,29,19.20
2018,04,27,16,30,19.20
2018,04,27,16,31,19.10
2018,04,27,16,32,19.20
2018,04,27,16,33,19.20
2018,04,27,16,34,19.20
2018,04,27,16,35,19.10
2018,04,27,16,36,19.10
2018,04,27,16,37,19.10
2018,04,27,16,38,19.10
2018,04,27,16,39,19.00
2018,04,27,16,40,18.90
2018,04,27,16,41,18.80
2018,04,27,16,42,18.80
2018,04,27,16,43,18.70
2018,04,27,16,44,18.70
2018,04,27,16,45,18.60
2018,04,27,16,46,18.60
2018,04,27,16,47,18.50
2018,04,27,16,48,18.50
2018,04,27,16,49,18.40
2018,04,27,16,50,18.40
2018,04,27,16,51,18.40
2018,04,27,16,52,18.40
2018,04,27,16,53,18.40
2018,04,27,16,54,18.40
2018,04,27,16,55,18.40
2018,04,27,16,56,18.40
2018,04,27,16,57,18.40
2018,04,27,16,58,18.40
2018,04,27,16,59,18.50
2018,04,27,17,00,18.60
2018,04,27,17,01,18.60
2018,04,27,17,02,18.60
2018,04,27,17,03,18.70
2018,04,27,17,04,18.70
2018,04,27,17,05,18.70
2018,04,27,17,06,18.80
2018,04,27,17,07,18.80
2018,04,27,17,08,18.70
2018,04,27,17,09,18.70
2018,04,27,17,10,18.80
2018,04,27,17,11,18.80
2018,04,27,17,12,18.80
2018,04,27,17,13,18.70
2018,04,27,17,14,18.70
2018,04,27,17,15,18.60
2018,04,27,17,16,18.60
2018,04,27,17,17,18.60
2018,04,27,17,18,18.60
2018,04,27,17,19,18.60